Time,TemperatureF,DewpointF,PressureIn,WindDirection,WindDirectionDegrees,WindSpeedMPH,WindSpeedGustMPH,Humidity,HourlyPrecipIn,Conditions,Clouds,dailyrainin,SoftwareType,DateUTC
2013-06-26 00:01:00,75.5,70.7,29.58,SE,124,0.0,1.0,85,0.00,,,0.00,WeatherCatV1.15B25,2013-06-26 05:01:00,
2013-06-26 00:06:00,75.4,70.6,29.58,SE,124,0.0,0.0,85,0.00,,,0.00,WeatherCatV1.15B25,2013-06-26 05:06:00,
2013-06-26 00:11:00,75.4,70.6,29.58,SE,124,0.0,1.0,85,0.00,,,0.00,WeatherCatV1.15B25,2013-06-26 05:11:00,
2013-06-26 00:16:00,75.4,70.9,29.58,SE,124,0.0,0.0,86,0.00,,,0.00,WeatherCatV1.15B25,2013-06-26 05:16:00,
2013-06-26 00:21:00,75.5,71.0,29.58,SE,124,0.0,0.0,86,0.00,,,0.00,WeatherCatV1.15B25,2013-06-26 05:21:00,
2013-06-26 00:26:00,75.6,71.1,29.58,SE,124,0.0,1.0,86,0.00,,,0.00,WeatherCatV1.15B25,2013-06-26 05:26:00,
2013-06-26 00:31:00,75.6,71.1,29.57,SE,124,0.0,0.0,86,0.00,,,0.00,WeatherCatV1.15B25,2013-06-26 05:31:00,
2013-06-26 00:36:00,75.6,71.1,29.58,SE,124,0.0,0.0,86,0.00,,,0.00,WeatherCatV1.15B25,2013-06-26 05:36:00,
2013-06-26 00:41:00,75.6,71.1,29.58,SE,124,0.0,1.0,86,0.00,,,0.00,WeatherCatV1.15B25,2013-06-26 05:41:00,
2013-06-26 00:46:00,75.6,71.1,29.58,SE,124,0.0,0.0,86,0.00,,,0.00,WeatherCatV1.15B25,2013-06-26 05:46:00,
2013-06-26 00:51:00,75.6,71.1,29.58,SE,124,0.0,0.0,86,0.00,,,0.00,WeatherCatV1.15B25,2013-06-26 05:51:00,
2013-06-26 00:56:00,75.7,71.5,29.58,SE,126,0.0,1.0,87,0.00,,,0.00,WeatherCatV1.15B25,2013-06-26 05:56:00,
2013-06-26 01:01:00,75.7,71.5,29.58,SE,126,0.0,0.0,87,0.00,,,0.00,WeatherCatV1.15B25,2013-06-26 06:01:00,
2013-06-26 01:06:00,75.7,71.5,29.58,SE,126,0.0,0.0,87,0.00,,,0.00,WeatherCatV1.15B25,2013-06-26 06:06:00,
2013-06-26 01:11:00,75.8,71.6,29.58,SE,126,0.0,0.0,87,0.00,,,0.00,WeatherCatV1.15B25,2013-06-26 06:11:00,
2013-06-26 01:16:00,75.8,71.6,29.58,SE,126,0.0,1.0,87,0.00,,,0.00,WeatherCatV1.15B25,2013-06-26 06:16:00,
2013-06-26 01:21:00,75.8,71.6,29.58,SE,126,0.0,1.0,87,0.00,,,0.00,WeatherCatV1.15B25,2013-06-26 06:21:00,
2013-06-26 01:26:00,75.7,71.5,29.58,SE,126,0.0,0.0,87,0.00,,,0.00,WeatherCatV1.15B25,2013-06-26 06:26:00,
2013-06-26 01:31:00,75.7,71.9,29.58,SE,126,0.0,0.0,88,0.00,,,0.00,WeatherCatV1.15B25,2013-06-26 06:31:00,
2013-06-26 01:36:00,75.7,71.9,29.58,SE,126,0.0,0.0,88,0.00,,,0.00,WeatherCatV1.15B25,2013-06-26 06:36:00,
2013-06-26 01:41:00,75.6,71.8,29.58,SE,126,0.0,2.0,88,0.00,,,0.00,WeatherCatV1.15B25,2013-06-26 06:41:00,
2013-06-26 01:46:00,75.6,71.8,29.58,SE,126,1.0,1.0,88,0.00,,,0.00,WeatherCatV1.15B25,2013-06-26 06:46:00,
2013-06-26 01:51:00,75.6,71.8,29.57,SE,126,0.0,1.0,88,0.00,,,0.00,WeatherCatV1.15B25,2013-06-26 06:51:00,
2013-06-26 01:56:00,75.5,72.0,29.57,SE,126,0.0,2.0,89,0.00,,,0.00,WeatherCatV1.15B25,2013-06-26 06:56:00,
2013-06-26 02:01:00,75.5,72.0,29.57,SE,126,0.0,3.0,89,0.00,,,0.00,WeatherCatV1.15B25,2013-06-26 07:01:00,
2013-06-26 02:06:00,75.5,72.0,29.57,SE,126,0.0,1.0,89,0.00,,,0.00,WeatherCatV1.15B25,2013-06-26 07:06:00,
2013-06-26 02:11:00,75.5,72.0,29.57,SE,126,0.0,1.0,89,0.00,,,0.00,WeatherCatV1.15B25,2013-06-26 07:11:00,
2013-06-26 02:16:00,75.5,72.0,29.56,SE,124,1.0,3.0,89,0.00,,,0.00,WeatherCatV1.15B25,2013-06-26 07:16:00,
2013-06-26 02:21:00,75.6,72.1,29.57,South,172,0.0,1.0,89,0.00,,,0.00,WeatherCatV1.15B25,2013-06-26 07:21:00,
2013-06-26 02:26:00,75.6,72.1,29.56,South,172,0.0,1.0,89,0.00,,,0.00,WeatherCatV1.15B25,2013-06-26 07:26:00,
2013-06-26 02:31:00,75.7,72.2,29.56,South,187,0.0,3.0,89,0.00,,,0.00,WeatherCatV1.15B25,2013-06-26 07:31:00,
2013-06-26 02:36:00,75.7,72.2,29.57,South,180,0.0,0.0,89,0.00,,,0.00,WeatherCatV1.15B25,2013-06-26 07:36:00,
2013-06-26 02:41:00,75.7,72.5,29.57,South,180,0.0,0.0,90,0.00,,,0.00,WeatherCatV1.15B25,2013-06-26 07:41:00,
2013-06-26 02:46:00,75.6,72.4,29.56,South,169,0.0,3.0,90,0.00,,,0.00,WeatherCatV1.15B25,2013-06-26 07:46:00,
2013-06-26 02:51:00,75.6,72.4,29.56,South,169,0.0,0.0,90,0.00,,,0.00,WeatherCatV1.15B25,2013-06-26 07:51:00,
2013-06-26 02:56:00,75.5,72.4,29.56,South,169,0.0,1.0,90,0.00,,,0.00,WeatherCatV1.15B25,2013-06-26 07:56:00,
2013-06-26 03:01:00,75.3,72.2,29.56,South,169,0.0,0.0,90,0.00,,,0.00,WeatherCatV1.15B25,2013-06-26 08:01:00,
2013-06-26 03:06:00,75.2,72.1,29.57,South,169,0.0,2.0,90,0.00,,,0.00,WeatherCatV1.15B25,2013-06-26 08:06:00,
2013-06-26 03:11:00,75.1,72.3,29.56,SSE,164,0.0,3.0,91,0.00,,,0.00,WeatherCatV1.15B25,2013-06-26 08:11:00,
2013-06-26 03:16:00,75.0,72.2,29.56,SSE,164,1.0,1.0,91,0.00,,,0.00,WeatherCatV1.15B25,2013-06-26 08:16:00,
2013-06-26 03:21:00,74.9,72.1,29.56,SSE,164,0.0,1.0,91,0.00,,,0.00,WeatherCatV1.15B25,2013-06-26 08:21:00,
2013-06-26 03:26:00,74.8,72.0,29.56,SSE,164,0.0,0.0,91,0.00,,,0.00,WeatherCatV1.15B25,2013-06-26 08:26:00,
2013-06-26 03:31:00,74.7,71.9,29.57,SSE,164,0.0,1.0,91,0.00,,,0.00,WeatherCatV1.15B25,2013-06-26 08:31:00,
2013-06-26 03:36:00,74.6,72.1,29.57,SSE,164,0.0,1.0,92,0.00,,,0.00,WeatherCatV1.15B25,2013-06-26 08:36:00,
2013-06-26 03:41:00,74.5,72.0,29.57,SSE,164,0.0,2.0,92,0.00,,,0.00,WeatherCatV1.15B25,2013-06-26 08:41:00,
2013-06-26 03:46:00,74.4,71.9,29.57,SSW,193,0.0,4.0,92,0.00,,,0.00,WeatherCatV1.15B25,2013-06-26 08:46:00,
2013-06-26 03:51:00,74.2,71.7,29.57,West,278,0.0,2.0,92,0.00,,,0.00,WeatherCatV1.15B25,2013-06-26 08:51:00,
2013-06-26 03:56:00,74.1,71.6,29.57,WNW,295,0.0,2.0,92,0.00,,,0.00,WeatherCatV1.15B25,2013-06-26 08:56:00,
2013-06-26 04:01:00,74.0,71.5,29.57,WNW,295,0.0,4.0,92,0.00,,,0.00,WeatherCatV1.15B25,2013-06-26 09:01:00,
2013-06-26 04:06:00,73.8,71.3,29.57,West,276,0.0,1.0,92,0.00,,,0.00,WeatherCatV1.15B25,2013-06-26 09:06:00,
2013-06-26 04:11:00,73.7,71.2,29.57,WNW,291,0.0,3.0,92,0.00,,,0.00,WeatherCatV1.15B25,2013-06-26 09:11:00,
2013-06-26 04:16:00,73.6,71.1,29.57,WNW,291,1.0,2.0,92,0.00,,,0.00,WeatherCatV1.15B25,2013-06-26 09:16:00,
2013-06-26 04:21:00,73.5,71.3,29.58,NW,311,1.0,1.0,93,0.00,,,0.00,WeatherCatV1.15B25,2013-06-26 09:21:00,
2013-06-26 04:26:00,73.3,71.1,29.58,NW,305,0.0,3.0,93,0.00,,,0.00,WeatherCatV1.15B25,2013-06-26 09:26:00,
2013-06-26 04:31:00,73.1,70.9,29.58,West,273,3.0,4.0,93,0.00,,,0.00,WeatherCatV1.15B25,2013-06-26 09:31:00,
2013-06-26 04:36:00,73.0,70.8,29.58,WNW,283,3.0,6.0,93,0.00,,,0.00,WeatherCatV1.15B25,2013-06-26 09:36:00,
2013-06-26 04:41:00,72.9,71.1,29.58,West,278,0.0,5.0,94,0.00,,,0.00,WeatherCatV1.15B25,2013-06-26 09:41:00,
2013-06-26 04:46:00,72.8,71.0,29.59,NNW,330,1.0,3.0,94,0.00,,,0.00,WeatherCatV1.15B25,2013-06-26 09:46:00,
2013-06-26 04:51:00,72.7,70.9,29.59,WNW,289,1.0,5.0,94,0.00,,,0.00,WeatherCatV1.15B25,2013-06-26 09:51:00,
2013-06-26 04:56:00,72.6,70.8,29.59,WSW,237,1.0,4.0,94,0.00,,,0.00,WeatherCatV1.15B25,2013-06-26 09:56:00,
2013-06-26 05:01:00,72.4,70.6,29.59,NW,318,0.0,3.0,94,0.00,,,0.00,WeatherCatV1.15B25,2013-06-26 10:01:00,
2013-06-26 05:06:00,72.2,70.4,29.60,NW,305,3.0,6.0,94,0.00,,,0.00,WeatherCatV1.15B25,2013-06-26 10:06:00,
2013-06-26 05:11:00,72.1,70.3,29.59,WNW,295,0.0,2.0,94,0.00,,,0.00,WeatherCatV1.15B25,2013-06-26 10:11:00,
2013-06-26 05:16:00,71.9,69.8,29.60,NW,326,1.0,3.0,93,0.00,,,0.00,WeatherCatV1.15B25,2013-06-26 10:16:00,
2013-06-26 05:21:00,71.8,69.7,29.60,WNW,293,1.0,4.0,93,0.00,,,0.00,WeatherCatV1.15B25,2013-06-26 10:21:00,
2013-06-26 05:26:00,71.7,69.2,29.60,West,278,1.0,1.0,92,0.00,,,0.00,WeatherCatV1.15B25,2013-06-26 10:26:00,
2013-06-26 05:31:00,71.6,69.1,29.60,WNW,300,2.0,6.0,92,0.00,,,0.00,WeatherCatV1.15B25,2013-06-26 10:31:00,
2013-06-26 05:36:00,71.5,69.0,29.61,West,272,2.0,2.0,92,0.00,,,0.00,WeatherCatV1.15B25,2013-06-26 10:36:00,
2013-06-26 05:41:00,71.3,68.8,29.61,WNW,299,2.0,2.0,92,0.00,,,0.00,WeatherCatV1.15B25,2013-06-26 10:41:00,
2013-06-26 05:46:00,71.2,68.8,29.62,WNW,301,7.0,7.0,92,0.00,,,0.00,WeatherCatV1.15B25,2013-06-26 10:46:00,
2013-06-26 05:51:00,71.1,68.3,29.62,West,272,2.0,5.0,91,0.00,,,0.00,WeatherCatV1.15B25,2013-06-26 10:51:00,
2013-06-26 05:56:00,71.0,68.2,29.62,WNW,282,2.0,5.0,91,0.00,,,0.00,WeatherCatV1.15B25,2013-06-26 10:56:00,
2013-06-26 06:01:00,70.8,67.7,29.62,NW,314,2.0,4.0,90,0.00,,,0.00,WeatherCatV1.15B25,2013-06-26 11:01:00,
2013-06-26 06:06:00,70.7,67.6,29.62,WNW,299,1.0,4.0,90,0.00,,,0.00,WeatherCatV1.15B25,2013-06-26 11:06:00,
2013-06-26 06:11:00,70.6,67.5,29.62,West,276,2.0,4.0,90,0.00,,,0.00,WeatherCatV1.15B25,2013-06-26 11:11:00,
2013-06-26 06:16:00,70.5,67.4,29.62,WNW,282,5.0,6.0,90,0.00,,,0.00,WeatherCatV1.15B25,2013-06-26 11:16:00,
2013-06-26 06:21:00,70.5,67.4,29.62,WNW,294,2.0,7.0,90,0.00,,,0.00,WeatherCatV1.15B25,2013-06-26 11:21:00,
2013-06-26 06:26:00,70.4,67.3,29.63,WNW,284,1.0,6.0,90,0.00,,,0.00,WeatherCatV1.15B25,2013-06-26 11:26:00,
2013-06-26 06:31:00,70.3,67.2,29.63,NNW,347,1.0,4.0,90,0.00,,,0.00,WeatherCatV1.15B25,2013-06-26 11:31:00,
2013-06-26 06:36:00,70.3,66.9,29.64,WNW,299,1.0,7.0,89,0.00,,,0.00,WeatherCatV1.15B25,2013-06-26 11:36:00,
2013-06-26 06:41:00,70.4,67.0,29.64,WNW,282,4.0,8.0,89,0.00,,,0.00,WeatherCatV1.15B25,2013-06-26 11:41:00,
2013-06-26 06:46:00,70.5,67.1,29.64,WNW,297,2.0,5.0,89,0.00,,,0.00,WeatherCatV1.15B25,2013-06-26 11:46:00,
2013-06-26 06:51:00,70.4,67.0,29.64,West,278,0.0,3.0,89,0.00,,,0.00,WeatherCatV1.15B25,2013-06-26 11:51:00,
2013-06-26 06:56:00,70.5,67.1,29.65,WNW,290,3.0,6.0,89,0.00,,,0.00,WeatherCatV1.15B25,2013-06-26 11:56:00,
2013-06-26 07:01:00,70.6,67.2,29.65,WNW,286,2.0,7.0,89,0.00,,,0.00,WeatherCatV1.15B25,2013-06-26 12:01:00,
2013-06-26 07:06:00,70.6,67.2,29.65,WNW,283,3.0,6.0,89,0.00,,,0.00,WeatherCatV1.15B25,2013-06-26 12:06:00,
2013-06-26 07:11:00,70.7,67.0,29.66,WNW,284,4.0,6.0,88,0.00,,,0.00,WeatherCatV1.15B25,2013-06-26 12:11:00,
2013-06-26 07:16:00,70.9,67.2,29.66,NNW,328,2.0,7.0,88,0.00,,,0.00,WeatherCatV1.15B25,2013-06-26 12:16:00,
2013-06-26 07:21:00,71.0,67.3,29.66,NNW,331,2.0,5.0,88,0.00,,,0.00,WeatherCatV1.15B25,2013-06-26 12:21:00,
2013-06-26 07:26:00,71.2,67.1,29.66,WNW,301,3.0,5.0,87,0.00,,,0.00,WeatherCatV1.15B25,2013-06-26 12:26:00,
2013-06-26 07:31:00,71.6,67.5,29.66,NW,308,3.0,6.0,87,0.00,,,0.00,WeatherCatV1.15B25,2013-06-26 12:31:00,
2013-06-26 07:36:00,71.9,67.5,29.66,West,279,2.0,5.0,86,0.00,,,0.00,WeatherCatV1.15B25,2013-06-26 12:36:00,
2013-06-26 07:41:00,72.1,67.3,29.66,WNW,294,2.0,8.0,85,0.00,,,0.00,WeatherCatV1.15B25,2013-06-26 12:41:00,
2013-06-26 07:46:00,72.3,67.5,29.66,WSW,257,2.0,5.0,85,0.00,,,0.00,WeatherCatV1.15B25,2013-06-26 12:46:00,
2013-06-26 07:51:00,72.4,67.3,29.66,NW,313,2.0,7.0,84,0.00,,,0.00,WeatherCatV1.15B25,2013-06-26 12:51:00,
2013-06-26 07:56:00,72.6,67.5,29.66,West,278,5.0,9.0,84,0.00,,,0.00,WeatherCatV1.15B25,2013-06-26 12:56:00,
2013-06-26 08:01:00,72.8,67.3,29.66,NW,305,3.0,5.0,83,0.00,,,0.00,WeatherCatV1.15B25,2013-06-26 13:01:00,
2013-06-26 08:06:00,73.1,67.6,29.66,WNW,293,4.0,7.0,83,0.00,,,0.00,WeatherCatV1.15B25,2013-06-26 13:06:00,
2013-06-26 08:11:00,73.3,67.5,29.66,NW,307,2.0,5.0,82,0.00,,,0.00,WeatherCatV1.15B25,2013-06-26 13:11:00,
2013-06-26 08:16:00,73.5,67.7,29.66,NW,309,5.0,5.0,82,0.00,,,0.00,WeatherCatV1.15B25,2013-06-26 13:16:00,
2013-06-26 08:21:00,73.8,67.6,29.67,NW,311,4.0,6.0,81,0.00,,,0.00,WeatherCatV1.15B25,2013-06-26 13:21:00,
2013-06-26 08:26:00,74.0,67.8,29.67,West,277,0.0,5.0,81,0.00,,,0.00,WeatherCatV1.15B25,2013-06-26 13:26:00,
2013-06-26 08:31:00,74.4,67.8,29.67,NNW,328,3.0,5.0,80,0.00,,,0.00,WeatherCatV1.15B25,2013-06-26 13:31:00,
2013-06-26 08:36:00,74.6,67.6,29.67,West,279,1.0,6.0,79,0.00,,,0.00,WeatherCatV1.15B25,2013-06-26 13:36:00,
2013-06-26 08:41:00,74.9,67.9,29.67,WNW,298,2.0,4.0,79,0.00,,,0.00,WeatherCatV1.15B25,2013-06-26 13:41:00,
2013-06-26 08:46:00,75.1,67.8,29.68,NW,326,1.0,5.0,78,0.00,,,0.00,WeatherCatV1.15B25,2013-06-26 13:46:00,
2013-06-26 08:51:00,75.4,68.4,29.68,WNW,294,2.0,5.0,79,0.00,,,0.00,WeatherCatV1.15B25,2013-06-26 13:51:00,
2013-06-26 08:56:00,75.6,67.5,29.68,NW,310,4.0,5.0,76,0.00,,,0.00,WeatherCatV1.15B25,2013-06-26 13:56:00,
2013-06-26 09:01:00,75.8,68.1,29.68,WNW,293,4.0,4.0,77,0.00,,,0.00,WeatherCatV1.15B25,2013-06-26 14:01:00,
2013-06-26 09:06:00,76.1,68.0,29.69,NW,322,6.0,6.0,76,0.00,,,0.00,WeatherCatV1.15B25,2013-06-26 14:06:00,
2013-06-26 09:11:00,76.3,68.5,29.69,West,268,2.0,9.0,77,0.00,,,0.00,WeatherCatV1.15B25,2013-06-26 14:11:00,
2013-06-26 09:16:00,76.4,68.3,29.69,North,349,4.0,5.0,76,0.00,,,0.00,WeatherCatV1.15B25,2013-06-26 14:16:00,
2013-06-26 09:21:00,76.6,68.5,29.69,WNW,288,2.0,4.0,76,0.00,,,0.00,WeatherCatV1.15B25,2013-06-26 14:21:00,
2013-06-26 09:26:00,76.7,67.8,29.69,West,271,1.0,4.0,74,0.00,,,0.00,WeatherCatV1.15B25,2013-06-26 14:26:00,
2013-06-26 09:31:00,76.9,68.0,29.69,North,356,5.0,6.0,74,0.00,,,0.00,WeatherCatV1.15B25,2013-06-26 14:31:00,
2013-06-26 09:36:00,77.0,68.1,29.69,WNW,291,3.0,7.0,74,0.00,,,0.00,WeatherCatV1.15B25,2013-06-26 14:36:00,
2013-06-26 09:41:00,77.3,68.3,29.69,West,269,3.0,7.0,74,0.00,,,0.00,WeatherCatV1.15B25,2013-06-26 14:41:00,
2013-06-26 09:46:00,77.6,68.6,29.69,WNW,301,2.0,9.0,74,0.00,,,0.00,WeatherCatV1.15B25,2013-06-26 14:46:00,
2013-06-26 09:51:00,77.8,68.0,29.70,North,5,4.0,8.0,72,0.00,,,0.00,WeatherCatV1.15B25,2013-06-26 14:51:00,
2013-06-26 09:56:00,78.0,68.6,29.70,NW,317,1.0,4.0,73,0.00,,,0.00,WeatherCatV1.15B25,2013-06-26 14:56:00,
2013-06-26 10:01:00,78.2,68.4,29.70,WNW,297,3.0,3.0,72,0.00,,,0.00,WeatherCatV1.15B25,2013-06-26 15:01:00,
2013-06-26 10:06:00,78.2,68.0,29.70,West,266,2.0,6.0,71,0.00,,,0.00,WeatherCatV1.15B25,2013-06-26 15:06:00,
2013-06-26 10:11:00,78.4,68.6,29.70,WNW,302,3.0,5.0,72,0.00,,,0.00,WeatherCatV1.15B25,2013-06-26 15:11:00,
2013-06-26 10:16:00,78.6,68.0,29.70,WNW,290,3.0,8.0,70,0.00,,,0.00,WeatherCatV1.15B25,2013-06-26 15:16:00,
2013-06-26 10:21:00,78.8,68.6,29.70,NW,326,2.0,6.0,71,0.00,,,0.00,WeatherCatV1.15B25,2013-06-26 15:21:00,
2013-06-26 10:26:00,79.1,68.9,29.70,West,281,5.0,6.0,71,0.00,,,0.00,WeatherCatV1.15B25,2013-06-26 15:26:00,
2013-06-26 10:31:00,79.0,68.4,29.70,NNW,334,1.0,4.0,70,0.00,,,0.00,WeatherCatV1.15B25,2013-06-26 15:31:00,
2013-06-26 10:36:00,78.9,68.3,29.71,NW,309,6.0,8.0,70,0.00,,,0.00,WeatherCatV1.15B25,2013-06-26 15:36:00,
2013-06-26 10:41:00,78.9,67.0,29.71,North,0,4.0,6.0,67,0.00,,,0.00,WeatherCatV1.15B25,2013-06-26 15:41:00,
2013-06-26 10:46:00,79.2,68.1,29.71,West,276,7.0,7.0,69,0.00,,,0.00,WeatherCatV1.15B25,2013-06-26 15:46:00,
2013-06-26 10:51:00,79.4,67.5,29.71,WNW,290,2.0,5.0,67,0.00,,,0.00,WeatherCatV1.15B25,2013-06-26 15:51:00,
2013-06-26 10:56:00,79.6,67.7,29.71,WNW,284,5.0,7.0,67,0.00,,,0.00,WeatherCatV1.15B25,2013-06-26 15:56:00,
2013-06-26 11:01:00,79.6,67.2,29.71,West,268,1.0,6.0,66,0.00,,,0.00,WeatherCatV1.15B25,2013-06-26 16:01:00,
2013-06-26 11:06:00,79.9,67.5,29.71,NW,317,1.0,4.0,66,0.00,,,0.00,WeatherCatV1.15B25,2013-06-26 16:06:00,
2013-06-26 11:11:00,80.3,67.4,29.72,NW,308,1.0,6.0,65,0.00,,,0.00,WeatherCatV1.15B25,2013-06-26 16:11:00,
2013-06-26 11:16:00,80.6,67.3,29.72,WNW,289,3.0,6.0,64,0.00,,,0.00,WeatherCatV1.15B25,2013-06-26 16:16:00,
2013-06-26 11:21:00,80.7,67.4,29.72,WNW,301,2.0,6.0,64,0.00,,,0.00,WeatherCatV1.15B25,2013-06-26 16:21:00,
2013-06-26 11:26:00,80.8,66.5,29.72,NW,305,7.0,7.0,62,0.00,,,0.00,WeatherCatV1.15B25,2013-06-26 16:26:00,
2013-06-26 11:31:00,81.1,65.4,29.73,WNW,294,1.0,7.0,59,0.00,,,0.00,WeatherCatV1.15B25,2013-06-26 16:31:00,
2013-06-26 11:36:00,81.3,65.1,29.73,WNW,286,3.0,9.0,58,0.00,,,0.00,WeatherCatV1.15B25,2013-06-26 16:36:00,
2013-06-26 11:41:00,81.4,65.7,29.73,West,272,1.0,4.0,59,0.00,,,0.00,WeatherCatV1.15B25,2013-06-26 16:41:00,
2013-06-26 11:46:00,81.7,65.5,29.73,WNW,303,0.0,4.0,58,0.00,,,0.00,WeatherCatV1.15B25,2013-06-26 16:46:00,
2013-06-26 11:51:00,82.0,65.2,29.73,NW,310,2.0,5.0,57,0.00,,,0.00,WeatherCatV1.15B25,2013-06-26 16:51:00,
2013-06-26 11:56:00,82.3,66.0,29.73,West,276,3.0,6.0,58,0.00,,,0.00,WeatherCatV1.15B25,2013-06-26 16:56:00,
2013-06-26 12:01:00,82.2,64.9,29.73,WNW,288,4.0,6.0,56,0.00,,,0.00,WeatherCatV1.15B25,2013-06-26 17:01:00,
2013-06-26 12:06:00,82.4,65.6,29.73,NW,312,1.0,3.0,57,0.00,,,0.00,WeatherCatV1.15B25,2013-06-26 17:06:00,
2013-06-26 12:11:00,82.4,65.1,29.74,West,278,2.0,7.0,56,0.00,,,0.00,WeatherCatV1.15B25,2013-06-26 17:11:00,
2013-06-26 12:16:00,82.7,65.4,29.74,WNW,292,2.0,8.0,56,0.00,,,0.00,WeatherCatV1.15B25,2013-06-26 17:16:00,
2013-06-26 12:21:00,82.7,64.3,29.74,NW,311,4.0,6.0,54,0.00,,,0.00,WeatherCatV1.15B25,2013-06-26 17:21:00,
2013-06-26 12:26:00,82.7,64.9,29.75,WNW,282,4.0,8.0,55,0.00,,,0.00,WeatherCatV1.15B25,2013-06-26 17:26:00,
2013-06-26 12:31:00,82.9,66.1,29.74,WNW,288,4.0,7.0,57,0.00,,,0.00,WeatherCatV1.15B25,2013-06-26 17:31:00,
2013-06-26 12:36:00,83.3,65.9,29.75,West,279,2.0,4.0,56,0.00,,,0.00,WeatherCatV1.15B25,2013-06-26 17:36:00,
2013-06-26 12:41:00,83.6,65.7,29.75,WNW,286,2.0,5.0,55,0.00,,,0.00,WeatherCatV1.15B25,2013-06-26 17:41:00,
2013-06-26 12:46:00,83.8,64.8,29.75,NW,311,1.0,7.0,53,0.00,,,0.00,WeatherCatV1.15B25,2013-06-26 17:46:00,
2013-06-26 12:51:00,83.6,64.1,29.75,NNW,345,6.0,9.0,52,0.00,,,0.00,WeatherCatV1.15B25,2013-06-26 17:51:00,
2013-06-26 12:56:00,83.6,64.1,29.75,WNW,291,3.0,9.0,52,0.00,,,0.00,WeatherCatV1.15B25,2013-06-26 17:56:00,
2013-06-26 13:01:00,83.5,64.0,29.75,NNE,30,4.0,10.0,52,0.00,,,0.00,WeatherCatV1.15B25,2013-06-26 18:01:00,
2013-06-26 13:06:00,83.7,64.7,29.75,WNW,285,1.0,4.0,53,0.00,,,0.00,WeatherCatV1.15B25,2013-06-26 18:06:00,
2013-06-26 13:11:00,83.8,64.8,29.75,NW,316,3.0,6.0,53,0.00,,,0.00,WeatherCatV1.15B25,2013-06-26 18:11:00,
2013-06-26 13:16:00,84.0,65.5,29.75,NW,305,3.0,5.0,54,0.00,,,0.00,WeatherCatV1.15B25,2013-06-26 18:16:00,
2013-06-26 13:21:00,84.2,64.6,29.75,West,271,4.0,6.0,52,0.00,,,0.00,WeatherCatV1.15B25,2013-06-26 18:21:00,
2013-06-26 13:26:00,84.2,63.5,29.75,WSW,251,1.0,5.0,50,0.00,,,0.00,WeatherCatV1.15B25,2013-06-26 18:26:00,
2013-06-26 13:31:00,84.1,62.8,29.75,NNW,338,4.0,7.0,49,0.00,,,0.00,WeatherCatV1.15B25,2013-06-26 18:31:00,
2013-06-26 13:36:00,84.5,63.2,29.75,NNE,24,5.0,8.0,49,0.00,,,0.00,WeatherCatV1.15B25,2013-06-26 18:36:00,
2013-06-26 13:41:00,84.8,64.6,29.75,WNW,294,2.0,4.0,51,0.00,,,0.00,WeatherCatV1.15B25,2013-06-26 18:41:00,
2013-06-26 13:46:00,85.1,65.5,29.75,NW,312,1.0,4.0,52,0.00,,,0.00,WeatherCatV1.15B25,2013-06-26 18:46:00,
2013-06-26 13:51:00,85.3,63.9,29.75,WSW,257,4.0,6.0,49,0.00,,,0.00,WeatherCatV1.15B25,2013-06-26 18:51:00,
2013-06-26 13:56:00,85.4,64.6,29.75,West,281,2.0,4.0,50,0.00,,,0.00,WeatherCatV1.15B25,2013-06-26 18:56:00,
2013-06-26 14:01:00,85.7,64.3,29.75,NW,307,4.0,8.0,49,0.00,,,0.00,WeatherCatV1.15B25,2013-06-26 19:01:00,
2013-06-26 14:06:00,85.5,64.1,29.75,NNW,345,2.0,4.0,49,0.00,,,0.00,WeatherCatV1.15B25,2013-06-26 19:06:00,
2013-06-26 14:11:00,85.6,63.6,29.75,North,356,5.0,7.0,48,0.00,,,0.00,WeatherCatV1.15B25,2013-06-26 19:11:00,
2013-06-26 14:16:00,85.7,62.5,29.74,WNW,301,4.0,5.0,46,0.00,,,0.00,WeatherCatV1.15B25,2013-06-26 19:16:00,
2013-06-26 14:21:00,85.7,63.7,29.74,West,279,1.0,8.0,48,0.00,,,0.00,WeatherCatV1.15B25,2013-06-26 19:21:00,
2013-06-26 14:26:00,85.7,63.1,29.74,NNW,343,3.0,5.0,47,0.00,,,0.00,WeatherCatV1.15B25,2013-06-26 19:26:00,
2013-06-26 14:31:00,85.9,63.3,29.74,NW,314,0.0,3.0,47,0.00,,,0.00,WeatherCatV1.15B25,2013-06-26 19:31:00,
2013-06-26 14:36:00,86.3,62.4,29.74,WNW,293,1.0,6.0,45,0.00,,,0.00,WeatherCatV1.15B25,2013-06-26 19:36:00,
2013-06-26 14:41:00,86.2,63.6,29.74,West,276,0.0,6.0,47,0.00,,,0.00,WeatherCatV1.15B25,2013-06-26 19:41:00,
2013-06-26 14:46:00,86.2,63.0,29.74,West,279,0.0,4.0,46,0.00,,,0.00,WeatherCatV1.15B25,2013-06-26 19:46:00,
2013-06-26 14:51:00,86.5,62.0,29.74,West,269,5.0,5.0,44,0.00,,,0.00,WeatherCatV1.15B25,2013-06-26 19:51:00,
2013-06-26 14:56:00,86.9,61.7,29.74,NNW,336,3.0,7.0,43,0.00,,,0.00,WeatherCatV1.15B25,2013-06-26 19:56:00,
2013-06-26 15:01:00,87.0,61.1,29.74,NW,314,0.0,5.0,42,0.00,,,0.00,WeatherCatV1.15B25,2013-06-26 20:01:00,
2013-06-26 15:06:00,87.4,61.5,29.74,NW,310,3.0,7.0,42,0.00,,,0.00,WeatherCatV1.15B25,2013-06-26 20:06:00,
2013-06-26 15:11:00,87.4,60.8,29.74,NW,307,2.0,8.0,41,0.00,,,0.00,WeatherCatV1.15B25,2013-06-26 20:11:00,
2013-06-26 15:16:00,87.4,61.5,29.74,SW,235,2.0,5.0,42,0.00,,,0.00,WeatherCatV1.15B25,2013-06-26 20:16:00,
2013-06-26 15:21:00,87.4,61.5,29.74,WNW,284,1.0,5.0,42,0.00,,,0.00,WeatherCatV1.15B25,2013-06-26 20:21:00,
2013-06-26 15:26:00,87.7,63.0,29.74,West,269,0.0,4.0,44,0.00,,,0.00,WeatherCatV1.15B25,2013-06-26 20:26:00,
2013-06-26 15:31:00,88.1,61.4,29.74,NW,324,2.0,6.0,41,0.00,,,0.00,WeatherCatV1.15B25,2013-06-26 20:31:00,
2013-06-26 15:36:00,87.9,61.2,29.74,West,269,0.0,4.0,41,0.00,,,0.00,WeatherCatV1.15B25,2013-06-26 20:36:00,
2013-06-26 15:41:00,87.9,61.9,29.74,West,261,2.0,3.0,42,0.00,,,0.00,WeatherCatV1.15B25,2013-06-26 20:41:00,
2013-06-26 15:46:00,87.9,62.6,29.74,West,264,1.0,4.0,43,0.00,,,0.00,WeatherCatV1.15B25,2013-06-26 20:46:00,
2013-06-26 15:51:00,88.2,64.8,29.73,NW,308,3.0,3.0,46,0.00,,,0.00,WeatherCatV1.15B25,2013-06-26 20:51:00,
2013-06-26 15:56:00,88.1,62.7,29.73,West,277,0.0,3.0,43,0.00,,,0.00,WeatherCatV1.15B25,2013-06-26 20:56:00,
2013-06-26 16:01:00,88.7,63.3,29.74,NNW,341,1.0,3.0,43,0.00,,,0.00,WeatherCatV1.15B25,2013-06-26 21:01:00,
2013-06-26 16:06:00,89.1,62.3,29.74,NW,307,3.0,4.0,41,0.00,,,0.00,WeatherCatV1.15B25,2013-06-26 21:06:00,
2013-06-26 16:11:00,89.1,63.6,29.73,NW,311,2.0,2.0,43,0.00,,,0.00,WeatherCatV1.15B25,2013-06-26 21:11:00,
2013-06-26 16:16:00,89.1,61.6,29.74,NW,324,0.0,4.0,40,0.00,,,0.00,WeatherCatV1.15B25,2013-06-26 21:16:00,
2013-06-26 16:21:00,89.4,61.1,29.74,West,270,1.0,6.0,39,0.00,,,0.00,WeatherCatV1.15B25,2013-06-26 21:21:00,
2013-06-26 16:26:00,89.3,61.0,29.73,WNW,286,1.0,8.0,39,0.00,,,0.00,WeatherCatV1.15B25,2013-06-26 21:26:00,
2013-06-26 16:31:00,89.3,61.0,29.73,NW,314,2.0,3.0,39,0.00,,,0.00,WeatherCatV1.15B25,2013-06-26 21:31:00,
2013-06-26 16:36:00,89.4,61.9,29.73,WNW,284,1.0,3.0,40,0.00,,,0.00,WeatherCatV1.15B25,2013-06-26 21:36:00,
2013-06-26 16:41:00,89.4,61.9,29.73,NW,325,3.0,5.0,40,0.00,,,0.00,WeatherCatV1.15B25,2013-06-26 21:41:00,
2013-06-26 16:46:00,89.4,60.4,29.73,NW,319,1.0,6.0,38,0.00,,,0.00,WeatherCatV1.15B25,2013-06-26 21:46:00,
2013-06-26 16:51:00,89.5,61.9,29.73,West,275,1.0,4.0,40,0.00,,,0.00,WeatherCatV1.15B25,2013-06-26 21:51:00,
2013-06-26 16:56:00,89.7,62.1,29.73,West,275,3.0,4.0,40,0.00,,,0.00,WeatherCatV1.15B25,2013-06-26 21:56:00,
2013-06-26 17:01:00,89.9,62.3,29.73,WNW,282,0.0,4.0,40,0.00,,,0.00,WeatherCatV1.15B25,2013-06-26 22:01:00,
2013-06-26 17:06:00,89.9,62.3,29.73,WNW,283,3.0,3.0,40,0.00,,,0.00,WeatherCatV1.15B25,2013-06-26 22:06:00,
2013-06-26 17:11:00,90.1,61.8,29.73,West,275,0.0,5.0,39,0.00,,,0.00,WeatherCatV1.15B25,2013-06-26 22:11:00,
2013-06-26 17:16:00,90.0,63.1,29.72,West,275,1.0,2.0,41,0.00,,,0.00,WeatherCatV1.15B25,2013-06-26 22:16:00,
2013-06-26 17:21:00,90.0,61.7,29.72,WNW,290,1.0,4.0,39,0.00,,,0.00,WeatherCatV1.15B25,2013-06-26 22:21:00,
2013-06-26 17:26:00,90.0,61.7,29.72,WNW,290,1.0,3.0,39,0.00,,,0.00,WeatherCatV1.15B25,2013-06-26 22:26:00,
2013-06-26 17:31:00,90.1,63.2,29.72,WNW,293,0.0,3.0,41,0.00,,,0.00,WeatherCatV1.15B25,2013-06-26 22:31:00,
2013-06-26 17:36:00,90.1,61.8,29.72,West,281,1.0,3.0,39,0.00,,,0.00,WeatherCatV1.15B25,2013-06-26 22:36:00,
2013-06-26 17:41:00,90.1,61.0,29.72,West,281,2.0,3.0,38,0.00,,,0.00,WeatherCatV1.15B25,2013-06-26 22:41:00,
2013-06-26 17:46:00,90.3,63.4,29.72,WNW,295,1.0,4.0,41,0.00,,,0.00,WeatherCatV1.15B25,2013-06-26 22:46:00,
2013-06-26 17:51:00,90.5,62.1,29.72,NNW,337,2.0,4.0,39,0.00,,,0.00,WeatherCatV1.15B25,2013-06-26 22:51:00,
2013-06-26 17:56:00,90.3,61.9,29.72,WNW,283,1.0,1.0,39,0.00,,,0.00,WeatherCatV1.15B25,2013-06-26 22:56:00,
2013-06-26 18:01:00,89.9,59.3,29.72,WNW,298,1.0,3.0,36,0.00,,,0.00,WeatherCatV1.15B25,2013-06-26 23:01:00,
2013-06-26 18:06:00,89.4,59.7,29.72,West,269,2.0,4.0,37,0.00,,,0.00,WeatherCatV1.15B25,2013-06-26 23:06:00,
2013-06-26 18:11:00,89.1,60.9,29.72,West,269,0.0,1.0,39,0.00,,,0.00,WeatherCatV1.15B25,2013-06-26 23:11:00,
2013-06-26 18:16:00,88.8,59.9,29.72,West,269,2.0,4.0,38,0.00,,,0.00,WeatherCatV1.15B25,2013-06-26 23:16:00,
2013-06-26 18:21:00,88.7,61.2,29.72,West,269,2.0,4.0,40,0.00,,,0.00,WeatherCatV1.15B25,2013-06-26 23:21:00,
2013-06-26 18:26:00,88.5,60.3,29.72,WNW,299,1.0,2.0,39,0.00,,,0.00,WeatherCatV1.15B25,2013-06-26 23:26:00,
2013-06-26 18:31:00,88.4,61.0,29.72,WNW,301,2.0,4.0,40,0.00,,,0.00,WeatherCatV1.15B25,2013-06-26 23:31:00,
2013-06-26 18:36:00,88.3,61.6,29.72,WNW,291,1.0,4.0,41,0.00,,,0.00,WeatherCatV1.15B25,2013-06-26 23:36:00,
2013-06-26 18:41:00,88.3,62.9,29.72,WNW,291,1.0,2.0,43,0.00,,,0.00,WeatherCatV1.15B25,2013-06-26 23:41:00,
2013-06-26 18:46:00,88.3,61.6,29.72,WNW,293,0.0,4.0,41,0.00,,,0.00,WeatherCatV1.15B25,2013-06-26 23:46:00,
2013-06-26 18:51:00,88.1,62.1,29.72,WNW,293,0.0,1.0,42,0.00,,,0.00,WeatherCatV1.15B25,2013-06-26 23:51:00,
2013-06-26 18:56:00,88.3,61.6,29.72,WSW,247,0.0,2.0,41,0.00,,,0.00,WeatherCatV1.15B25,2013-06-26 23:56:00,
2013-06-26 19:01:00,88.5,62.4,29.72,West,280,0.0,0.0,42,0.00,,,0.00,WeatherCatV1.15B25,2013-06-27 00:01:00,
2013-06-26 19:06:00,88.5,61.8,29.72,West,280,0.0,0.0,41,0.00,,,0.00,WeatherCatV1.15B25,2013-06-27 00:06:00,
2013-06-26 19:11:00,88.4,60.3,29.73,West,280,0.0,0.0,39,0.00,,,0.00,WeatherCatV1.15B25,2013-06-27 00:11:00,
2013-06-26 19:16:00,88.3,59.4,29.72,West,280,0.0,0.0,38,0.00,,,0.00,WeatherCatV1.15B25,2013-06-27 00:16:00,
2013-06-26 19:21:00,87.8,59.7,29.72,West,280,0.0,0.0,39,0.00,,,0.00,WeatherCatV1.15B25,2013-06-27 00:21:00,
2013-06-26 19:26:00,87.5,60.2,29.72,West,280,0.0,0.0,40,0.00,,,0.00,WeatherCatV1.15B25,2013-06-27 00:26:00,
2013-06-26 19:31:00,87.4,60.1,29.73,West,280,0.0,0.0,40,0.00,,,0.00,WeatherCatV1.15B25,2013-06-27 00:31:00,
2013-06-26 19:36:00,87.0,60.4,29.73,West,280,0.0,0.0,41,0.00,,,0.00,WeatherCatV1.15B25,2013-06-27 00:36:00,
2013-06-26 19:41:00,86.7,61.5,29.73,West,280,0.0,0.0,43,0.00,,,0.00,WeatherCatV1.15B25,2013-06-27 00:41:00,
2013-06-26 19:46:00,86.6,61.4,29.73,West,280,0.0,0.0,43,0.00,,,0.00,WeatherCatV1.15B25,2013-06-27 00:46:00,
2013-06-26 19:51:00,86.4,61.9,29.73,West,280,0.0,0.0,44,0.00,,,0.00,WeatherCatV1.15B25,2013-06-27 00:51:00,
2013-06-26 19:56:00,86.1,61.6,29.73,West,280,0.0,0.0,44,0.00,,,0.00,WeatherCatV1.15B25,2013-06-27 00:56:00,
2013-06-26 20:01:00,85.7,61.9,29.73,West,280,0.0,0.0,45,0.00,,,0.00,WeatherCatV1.15B25,2013-06-27 01:01:00,
2013-06-26 20:06:00,85.4,62.2,29.73,West,280,0.0,0.0,46,0.00,,,0.00,WeatherCatV1.15B25,2013-06-27 01:06:00,
2013-06-26 20:11:00,85.2,62.7,29.73,West,280,0.0,0.0,47,0.00,,,0.00,WeatherCatV1.15B25,2013-06-27 01:11:00,
2013-06-26 20:16:00,84.9,63.0,29.73,West,280,0.0,0.0,48,0.00,,,0.00,WeatherCatV1.15B25,2013-06-27 01:16:00,
2013-06-26 20:21:00,84.7,63.4,29.73,West,280,0.0,0.0,49,0.00,,,0.00,WeatherCatV1.15B25,2013-06-27 01:21:00,
2013-06-26 20:26:00,84.5,62.6,29.73,West,280,0.0,0.0,48,0.00,,,0.00,WeatherCatV1.15B25,2013-06-27 01:26:00,
2013-06-26 20:31:00,84.4,62.5,29.73,West,280,0.0,0.0,48,0.00,,,0.00,WeatherCatV1.15B25,2013-06-27 01:31:00,
2013-06-26 20:36:00,84.2,61.1,29.73,West,280,0.0,0.0,46,0.00,,,0.00,WeatherCatV1.15B25,2013-06-27 01:36:00,
2013-06-26 20:41:00,84.0,61.6,29.73,West,280,0.0,0.0,47,0.00,,,0.00,WeatherCatV1.15B25,2013-06-27 01:41:00,
2013-06-26 20:46:00,83.7,61.3,29.73,West,280,0.0,0.0,47,0.00,,,0.00,WeatherCatV1.15B25,2013-06-27 01:46:00,
2013-06-26 20:51:00,83.5,61.7,29.73,West,280,0.0,0.0,48,0.00,,,0.00,WeatherCatV1.15B25,2013-06-27 01:51:00,
2013-06-26 20:56:00,83.1,61.9,29.73,West,280,0.0,0.0,49,0.00,,,0.00,WeatherCatV1.15B25,2013-06-27 01:56:00,
2013-06-26 21:01:00,82.7,62.1,29.73,West,280,0.0,0.0,50,0.00,,,0.00,WeatherCatV1.15B25,2013-06-27 02:01:00,
2013-06-26 21:06:00,82.2,62.8,29.74,West,280,0.0,0.0,52,0.00,,,0.00,WeatherCatV1.15B25,2013-06-27 02:06:00,
2013-06-26 21:11:00,81.5,62.7,29.74,West,280,0.0,0.0,53,0.00,,,0.00,WeatherCatV1.15B25,2013-06-27 02:11:00,
2013-06-26 21:16:00,80.9,62.7,29.74,West,280,0.0,0.0,54,0.00,,,0.00,WeatherCatV1.15B25,2013-06-27 02:16:00,
2013-06-26 21:21:00,80.3,62.1,29.74,West,280,0.0,0.0,54,0.00,,,0.00,WeatherCatV1.15B25,2013-06-27 02:21:00,
2013-06-26 21:26:00,79.8,62.7,29.74,West,280,0.0,0.0,56,0.00,,,0.00,WeatherCatV1.15B25,2013-06-27 02:26:00,
2013-06-26 21:31:00,79.2,62.1,29.74,West,280,0.0,0.0,56,0.00,,,0.00,WeatherCatV1.15B25,2013-06-27 02:31:00,
2013-06-26 21:36:00,78.7,62.7,29.74,West,280,0.0,0.0,58,0.00,,,0.00,WeatherCatV1.15B25,2013-06-27 02:36:00,
2013-06-26 21:41:00,78.2,62.2,29.74,West,280,0.0,0.0,58,0.00,,,0.00,WeatherCatV1.15B25,2013-06-27 02:41:00,
2013-06-26 21:46:00,77.6,62.1,29.74,West,280,0.0,0.0,59,0.00,,,0.00,WeatherCatV1.15B25,2013-06-27 02:46:00,
2013-06-26 21:51:00,77.2,62.2,29.75,West,280,0.0,0.0,60,0.00,,,0.00,WeatherCatV1.15B25,2013-06-27 02:51:00,
2013-06-26 21:56:00,76.7,62.2,29.75,West,280,0.0,0.0,61,0.00,,,0.00,WeatherCatV1.15B25,2013-06-27 02:56:00,
2013-06-26 22:01:00,76.4,62.4,29.75,West,280,0.0,0.0,62,0.00,,,0.00,WeatherCatV1.15B25,2013-06-27 03:01:00,
2013-06-26 22:06:00,76.1,62.1,29.75,West,280,0.0,0.0,62,0.00,,,0.00,WeatherCatV1.15B25,2013-06-27 03:06:00,
2013-06-26 22:11:00,75.7,62.2,29.75,WNW,288,0.0,0.0,63,0.00,,,0.00,WeatherCatV1.15B25,2013-06-27 03:11:00,
2013-06-26 22:16:00,75.3,62.7,29.75,WNW,289,0.0,0.0,65,0.00,,,0.00,WeatherCatV1.15B25,2013-06-27 03:16:00,
2013-06-26 22:21:00,75.0,62.9,29.75,WNW,289,0.0,0.0,66,0.00,,,0.00,WeatherCatV1.15B25,2013-06-27 03:21:00,
2013-06-26 22:26:00,74.5,62.4,29.75,WNW,289,0.0,0.0,66,0.00,,,0.00,WeatherCatV1.15B25,2013-06-27 03:26:00,
2013-06-26 22:31:00,74.1,62.0,29.75,WNW,289,0.0,0.0,66,0.00,,,0.00,WeatherCatV1.15B25,2013-06-27 03:31:00,
2013-06-26 22:36:00,73.9,62.2,29.75,WNW,289,0.0,0.0,67,0.00,,,0.00,WeatherCatV1.15B25,2013-06-27 03:36:00,
2013-06-26 22:41:00,73.5,61.4,29.75,WNW,289,0.0,0.0,66,0.00,,,0.00,WeatherCatV1.15B25,2013-06-27 03:41:00,
2013-06-26 22:46:00,73.3,61.7,29.76,WNW,289,0.0,0.0,67,0.00,,,0.00,WeatherCatV1.15B25,2013-06-27 03:46:00,
2013-06-26 22:51:00,73.2,62.0,29.75,WNW,289,0.0,0.0,68,0.00,,,0.00,WeatherCatV1.15B25,2013-06-27 03:51:00,
2013-06-26 22:56:00,73.2,62.0,29.76,WNW,289,0.0,0.0,68,0.00,,,0.00,WeatherCatV1.15B25,2013-06-27 03:56:00,
2013-06-26 23:01:00,73.1,62.3,29.76,WNW,289,0.0,0.0,69,0.00,,,0.00,WeatherCatV1.15B25,2013-06-27 04:01:00,
2013-06-26 23:06:00,72.9,62.5,29.76,WNW,289,0.0,0.0,70,0.00,,,0.00,WeatherCatV1.15B25,2013-06-27 04:06:00,
2013-06-26 23:11:00,72.6,62.2,29.76,WNW,289,0.0,0.0,70,0.00,,,0.00,WeatherCatV1.15B25,2013-06-27 04:11:00,
2013-06-26 23:16:00,72.3,62.0,29.76,WNW,289,0.0,0.0,70,0.00,,,0.00,WeatherCatV1.15B25,2013-06-27 04:16:00,
2013-06-26 23:21:00,72.1,62.2,29.76,WNW,289,0.0,0.0,71,0.00,,,0.00,WeatherCatV1.15B25,2013-06-27 04:21:00,
2013-06-26 23:26:00,72.1,61.4,29.76,WNW,289,0.0,0.0,69,0.00,,,0.00,WeatherCatV1.15B25,2013-06-27 04:26:00,
2013-06-26 23:31:00,72.1,61.4,29.76,WNW,289,0.0,0.0,69,0.00,,,0.00,WeatherCatV1.15B25,2013-06-27 04:31:00,
2013-06-26 23:36:00,72.0,61.7,29.76,WNW,289,0.0,0.0,70,0.00,,,0.00,WeatherCatV1.15B25,2013-06-27 04:36:00,
2013-06-26 23:41:00,71.8,61.9,29.76,WNW,289,0.0,0.0,71,0.00,,,0.00,WeatherCatV1.15B25,2013-06-27 04:41:00,
2013-06-26 23:46:00,71.6,61.7,29.76,WNW,289,0.0,0.0,71,0.00,,,0.00,WeatherCatV1.15B25,2013-06-27 04:46:00,
2013-06-26 23:51:00,71.3,61.4,29.76,WNW,289,0.0,0.0,71,0.00,,,0.00,WeatherCatV1.15B25,2013-06-27 04:51:00,
2013-06-26 23:56:00,71.1,61.6,29.76,WNW,289,0.0,0.0,72,0.00,,,0.00,WeatherCatV1.15B25,2013-06-27 04:56:00,